Time,TemperatureF,DewpointF,PressureIn,WindDirection,WindDirectionDegrees,WindSpeedMPH,WindSpeedGustMPH,Humidity,HourlyPrecipIn,Conditions,Clouds,dailyrainin,SoftwareType,DateUTC
2013-06-03 00:00:00,71.6,70.4,29.88,NW,326,0.0,0.0,96,0.05,,,0.25,Wunderground v.1.13,2013-06-03 04:00:00,
2013-06-03 00:02:00,71.6,70.4,29.88,NW,326,0.0,0.0,96,0.05,,,0.00,Wunderground v.1.13,2013-06-03 04:02:00,
2013-06-03 00:06:00,71.6,70.4,29.88,NW,326,0.0,0.0,96,0.07,,,0.01,Wunderground v.1.13,2013-06-03 04:06:00,
2013-06-03 00:10:00,71.6,70.4,29.88,NW,326,0.0,0.0,96,0.07,,,0.01,Wunderground v.1.13,2013-06-03 04:10:00,
2013-06-03 00:18:00,71.6,70.4,29.87,NW,326,0.0,0.0,96,0.04,,,0.01,Wunderground v.1.13,2013-06-03 04:18:00,
2013-06-03 00:20:00,71.6,70.7,29.87,NW,326,0.0,0.0,97,0.04,,,0.01,Wunderground v.1.13,2013-06-03 04:20:00,
2013-06-03 00:28:00,71.6,70.7,29.87,NW,326,0.0,0.0,97,0.00,,,0.01,Wunderground v.1.13,2013-06-03 04:28:00,
2013-06-03 00:34:00,71.6,70.4,29.87,NW,326,0.0,0.0,96,0.00,,,0.01,Wunderground v.1.13,2013-06-03 04:34:00,
2013-06-03 00:40:00,71.6,70.4,29.87,NW,326,0.0,0.0,96,0.00,,,0.02,Wunderground v.1.13,2013-06-03 04:40:00,
2013-06-03 00:46:00,71.6,70.7,29.87,NW,326,0.0,0.0,97,0.00,,,0.02,Wunderground v.1.13,2013-06-03 04:46:00,
2013-06-03 00:53:00,71.6,70.7,29.87,NW,326,0.0,0.0,97,0.00,,,0.02,Wunderground v.1.13,2013-06-03 04:53:00,
2013-06-03 00:58:00,71.6,70.7,29.87,NW,326,0.0,0.0,97,0.00,,,0.02,Wunderground v.1.13,2013-06-03 04:58:00,
2013-06-03 01:04:00,71.6,70.7,29.86,NW,326,0.0,0.0,97,0.00,,,0.03,Wunderground v.1.13,2013-06-03 05:04:00,
2013-06-03 01:10:00,71.6,70.7,29.86,NW,326,0.0,0.0,97,0.00,,,0.03,Wunderground v.1.13,2013-06-03 05:10:00,
2013-06-03 01:16:00,71.6,70.7,29.85,NW,326,0.0,0.0,97,0.06,,,0.04,Wunderground v.1.13,2013-06-03 05:16:00,
2013-06-03 01:24:00,71.6,70.7,29.85,NW,326,0.0,0.0,97,0.06,,,0.05,Wunderground v.1.13,2013-06-03 05:24:00,
2013-06-03 01:30:00,71.6,70.7,29.85,NW,326,0.0,0.0,97,0.06,,,0.06,Wunderground v.1.13,2013-06-03 05:30:00,
2013-06-03 01:36:00,71.6,70.4,29.85,NW,326,0.0,0.0,96,0.10,,,0.07,Wunderground v.1.13,2013-06-03 05:36:00,
2013-06-03 01:42:00,71.6,70.7,29.85,NW,326,0.0,0.0,97,0.10,,,0.08,Wunderground v.1.13,2013-06-03 05:42:00,
2013-06-03 01:48:00,71.6,70.4,29.84,NW,326,0.0,0.0,96,0.14,,,0.09,Wunderground v.1.13,2013-06-03 05:48:00,
2013-06-03 01:54:00,71.6,70.7,29.84,NW,326,0.0,0.0,97,0.10,,,0.10,Wunderground v.1.13,2013-06-03 05:54:00,
2013-06-03 02:00:00,71.6,70.4,29.84,NW,326,0.0,0.0,96,0.13,,,0.11,Wunderground v.1.13,2013-06-03 06:00:00,
2013-06-03 02:06:00,71.6,70.7,29.84,NW,326,0.0,0.0,97,0.06,,,0.11,Wunderground v.1.13,2013-06-03 06:06:00,
2013-06-03 02:12:00,71.6,70.7,29.84,NW,326,0.0,0.0,97,0.04,,,0.11,Wunderground v.1.13,2013-06-03 06:12:00,
2013-06-03 02:18:00,71.6,70.7,29.83,NW,326,0.0,0.0,97,0.00,,,0.11,Wunderground v.1.13,2013-06-03 06:18:00,
2013-06-03 02:24:00,71.6,70.7,29.83,NW,326,0.0,0.0,97,0.00,,,0.11,Wunderground v.1.13,2013-06-03 06:24:00,
2013-06-03 02:30:00,71.6,70.7,29.83,NW,326,0.0,0.0,97,0.00,,,0.11,Wunderground v.1.13,2013-06-03 06:30:00,
2013-06-03 02:36:00,71.6,70.7,29.83,NW,326,0.0,0.0,97,0.00,,,0.11,Wunderground v.1.13,2013-06-03 06:36:00,
2013-06-03 02:42:00,71.6,70.7,29.83,NW,326,0.0,0.0,97,0.00,,,0.11,Wunderground v.1.13,2013-06-03 06:42:00,
2013-06-03 02:48:00,71.6,70.7,29.83,NW,326,0.0,0.0,97,0.00,,,0.11,Wunderground v.1.13,2013-06-03 06:48:00,
2013-06-03 02:54:00,71.6,70.7,29.83,NW,326,0.0,0.0,97,0.00,,,0.11,Wunderground v.1.13,2013-06-03 06:54:00,
2013-06-03 03:00:00,71.8,70.9,29.83,NW,326,0.0,0.0,97,0.00,,,0.11,Wunderground v.1.13,2013-06-03 07:00:00,
2013-06-03 03:06:00,71.8,70.9,29.82,NW,326,0.0,0.0,97,0.00,,,0.11,Wunderground v.1.13,2013-06-03 07:06:00,
2013-06-03 03:12:00,71.8,70.9,29.82,NW,326,0.0,0.0,97,0.00,,,0.11,Wunderground v.1.13,2013-06-03 07:12:00,
2013-06-03 03:18:00,71.8,70.9,29.82,NW,326,0.0,0.0,97,0.00,,,0.11,Wunderground v.1.13,2013-06-03 07:18:00,
2013-06-03 03:24:00,71.8,70.9,29.82,NW,326,0.0,0.0,97,0.00,,,0.11,Wunderground v.1.13,2013-06-03 07:24:00,
2013-06-03 03:30:00,71.8,70.9,29.82,NW,326,0.0,0.0,97,0.00,,,0.11,Wunderground v.1.13,2013-06-03 07:30:00,
2013-06-03 03:36:00,71.6,70.7,29.82,NW,326,0.0,0.0,97,0.00,,,0.11,Wunderground v.1.13,2013-06-03 07:36:00,
2013-06-03 03:42:00,71.6,70.7,29.82,NW,326,0.0,0.0,97,0.00,,,0.11,Wunderground v.1.13,2013-06-03 07:42:00,
2013-06-03 03:48:00,71.6,70.7,29.81,NW,326,0.0,0.0,97,0.00,,,0.11,Wunderground v.1.13,2013-06-03 07:48:00,
2013-06-03 03:54:00,71.5,70.6,29.81,NW,326,0.0,0.0,97,0.00,,,0.12,Wunderground v.1.13,2013-06-03 07:54:00,
2013-06-03 04:00:00,71.5,70.3,29.81,NW,326,0.0,0.0,96,0.12,,,0.13,Wunderground v.1.13,2013-06-03 08:00:00,
2013-06-03 04:06:00,71.3,70.1,29.80,NW,326,0.0,0.0,96,0.06,,,0.13,Wunderground v.1.13,2013-06-03 08:06:00,
2013-06-03 04:12:00,71.3,70.1,29.80,NW,326,0.0,0.0,96,0.04,,,0.13,Wunderground v.1.13,2013-06-03 08:12:00,
2013-06-03 04:18:00,71.1,69.9,29.81,NW,326,0.0,0.0,96,0.00,,,0.13,Wunderground v.1.13,2013-06-03 08:18:00,
2013-06-03 04:24:00,71.1,69.9,29.81,NW,326,0.0,0.0,96,0.00,,,0.13,Wunderground v.1.13,2013-06-03 08:24:00,
2013-06-03 04:30:00,70.9,69.7,29.81,NW,326,0.0,0.0,96,0.00,,,0.13,Wunderground v.1.13,2013-06-03 08:30:00,
2013-06-03 04:36:00,70.9,69.7,29.82,NW,326,0.0,0.0,96,0.00,,,0.13,Wunderground v.1.13,2013-06-03 08:36:00,
2013-06-03 04:42:00,70.9,69.7,29.82,NW,326,0.0,0.0,96,0.00,,,0.13,Wunderground v.1.13,2013-06-03 08:42:00,
2013-06-03 04:48:00,70.8,69.6,29.82,NW,326,0.0,0.0,96,0.00,,,0.13,Wunderground v.1.13,2013-06-03 08:48:00,
2013-06-03 04:56:00,70.8,69.6,29.82,NW,326,0.0,0.0,96,0.00,,,0.14,Wunderground v.1.13,2013-06-03 08:56:00,
2013-06-03 05:02:00,70.8,69.6,29.82,NW,326,0.0,0.0,96,0.00,,,0.14,Wunderground v.1.13,2013-06-03 09:02:00,
2013-06-03 05:10:00,70.8,69.6,29.82,NW,326,0.0,0.0,96,0.00,,,0.14,Wunderground v.1.13,2013-06-03 09:10:00,
2013-06-03 05:16:00,70.8,69.6,29.82,NW,326,0.0,0.0,96,0.00,,,0.14,Wunderground v.1.13,2013-06-03 09:16:00,
2013-06-03 05:24:00,70.6,69.4,29.82,NW,326,0.0,0.0,96,0.00,,,0.14,Wunderground v.1.13,2013-06-03 09:24:00,
2013-06-03 05:30:00,70.6,69.4,29.82,NW,326,0.0,0.0,96,0.00,,,0.14,Wunderground v.1.13,2013-06-03 09:30:00,
2013-06-03 05:36:00,70.6,69.4,29.82,NW,326,0.0,0.0,96,0.00,,,0.14,Wunderground v.1.13,2013-06-03 09:36:00,
2013-06-03 05:42:00,70.6,69.4,29.82,NW,326,0.0,0.0,96,0.60,,,0.16,Wunderground v.1.13,2013-06-03 09:42:00,
2013-06-03 05:48:00,70.6,69.4,29.82,NW,326,0.0,0.0,96,0.14,,,0.19,Wunderground v.1.13,2013-06-03 09:48:00,
2013-06-03 05:54:00,70.8,69.6,29.82,NW,326,0.0,0.0,96,0.06,,,0.19,Wunderground v.1.13,2013-06-03 09:54:00,
2013-06-03 06:00:00,70.8,69.9,29.82,NW,326,0.0,0.0,97,0.04,,,0.19,Wunderground v.1.13,2013-06-03 10:00:00,
2013-06-03 06:06:00,70.8,69.9,29.82,NW,326,0.0,0.0,97,0.00,,,0.19,Wunderground v.1.13,2013-06-03 10:06:00,
2013-06-03 06:12:00,70.8,69.6,29.82,NW,326,0.0,0.0,96,0.00,,,0.19,Wunderground v.1.13,2013-06-03 10:12:00,
2013-06-03 06:18:00,70.8,69.6,29.82,NW,326,0.0,0.0,96,0.00,,,0.19,Wunderground v.1.13,2013-06-03 10:18:00,
2013-06-03 06:24:00,70.8,69.6,29.82,NW,326,0.0,0.0,96,0.00,,,0.19,Wunderground v.1.13,2013-06-03 10:24:00,
2013-06-03 06:30:00,70.8,69.9,29.82,NW,326,0.0,0.0,97,0.00,,,0.19,Wunderground v.1.13,2013-06-03 10:30:00,
2013-06-03 06:36:00,70.8,69.9,29.82,NW,326,0.0,0.0,97,0.00,,,0.19,Wunderground v.1.13,2013-06-03 10:36:00,
2013-06-03 06:42:00,70.8,69.9,29.82,NW,326,0.0,0.0,97,0.00,,,0.20,Wunderground v.1.13,2013-06-03 10:42:00,
2013-06-03 06:48:00,70.8,69.9,29.82,NW,326,0.0,0.0,97,0.00,,,0.20,Wunderground v.1.13,2013-06-03 10:48:00,
2013-06-03 06:54:00,70.9,70.0,29.82,NW,326,0.0,0.0,97,0.05,,,0.21,Wunderground v.1.13,2013-06-03 10:54:00,
2013-06-03 07:00:00,70.9,70.0,29.82,NW,326,0.0,0.0,97,0.05,,,0.21,Wunderground v.1.13,2013-06-03 11:00:00,
2013-06-03 07:06:00,70.9,70.0,29.82,NW,326,0.0,0.0,97,0.04,,,0.21,Wunderground v.1.13,2013-06-03 11:06:00,
2013-06-03 07:12:00,70.9,70.0,29.82,NW,326,0.0,0.0,97,0.00,,,0.21,Wunderground v.1.13,2013-06-03 11:12:00,
2013-06-03 07:18:00,70.9,70.0,29.82,NW,326,0.0,0.0,97,0.00,,,0.22,Wunderground v.1.13,2013-06-03 11:18:00,
2013-06-03 07:24:00,70.9,70.0,29.82,NW,326,0.0,0.0,97,0.07,,,0.23,Wunderground v.1.13,2013-06-03 11:24:00,
2013-06-03 07:30:00,70.9,70.0,29.82,NW,326,0.0,0.0,97,0.06,,,0.23,Wunderground v.1.13,2013-06-03 11:30:00,
2013-06-03 07:36:00,70.9,70.0,29.82,NW,326,0.0,0.0,97,0.04,,,0.23,Wunderground v.1.13,2013-06-03 11:36:00,
2013-06-03 07:42:00,71.1,70.2,29.82,NW,326,0.0,0.0,97,0.00,,,0.23,Wunderground v.1.13,2013-06-03 11:42:00,
2013-06-03 07:48:00,71.1,70.2,29.82,NW,326,0.0,0.0,97,0.00,,,0.24,Wunderground v.1.13,2013-06-03 11:48:00,
2013-06-03 07:54:00,71.1,70.2,29.82,NW,326,0.0,0.0,97,0.00,,,0.24,Wunderground v.1.13,2013-06-03 11:54:00,
2013-06-03 08:00:00,71.1,70.2,29.82,NW,326,0.0,0.0,97,0.00,,,0.24,Wunderground v.1.13,2013-06-03 12:00:00,
2013-06-03 08:06:00,71.1,70.2,29.82,NW,326,0.0,0.0,97,0.00,,,0.24,Wunderground v.1.13,2013-06-03 12:06:00,
2013-06-03 08:12:00,71.3,70.4,29.82,NW,326,0.0,0.0,97,0.00,,,0.24,Wunderground v.1.13,2013-06-03 12:12:00,
2013-06-03 08:18:00,71.3,70.4,29.82,NW,326,0.0,0.0,97,0.00,,,0.24,Wunderground v.1.13,2013-06-03 12:18:00,
2013-06-03 08:24:00,71.3,70.4,29.82,NW,326,0.0,0.0,97,0.00,,,0.24,Wunderground v.1.13,2013-06-03 12:24:00,
2013-06-03 08:30:00,71.3,70.4,29.82,NW,326,0.0,0.0,97,0.00,,,0.24,Wunderground v.1.13,2013-06-03 12:30:00,
2013-06-03 08:36:00,71.5,70.6,29.82,NW,326,0.0,0.0,97,0.00,,,0.25,Wunderground v.1.13,2013-06-03 12:36:00,
2013-06-03 08:42:00,71.5,70.6,29.82,NW,326,0.0,0.0,97,0.00,,,0.25,Wunderground v.1.13,2013-06-03 12:42:00,
2013-06-03 08:48:00,71.6,70.7,29.82,NW,326,0.0,0.0,97,0.00,,,0.25,Wunderground v.1.13,2013-06-03 12:48:00,
2013-06-03 08:54:00,71.6,70.7,29.82,NW,326,0.0,0.0,97,0.00,,,0.26,Wunderground v.1.13,2013-06-03 12:54:00,
2013-06-03 09:00:00,71.6,70.7,29.82,NW,326,0.0,0.0,97,0.00,,,0.26,Wunderground v.1.13,2013-06-03 13:00:00,
2013-06-03 09:06:00,71.8,70.9,29.82,NW,326,0.0,0.0,97,0.00,,,0.26,Wunderground v.1.13,2013-06-03 13:06:00,
2013-06-03 09:12:00,71.8,70.9,29.82,NW,326,0.0,0.0,97,0.00,,,0.26,Wunderground v.1.13,2013-06-03 13:12:00,
2013-06-03 09:18:00,71.8,70.9,29.82,NW,326,0.0,0.0,97,0.00,,,0.27,Wunderground v.1.13,2013-06-03 13:18:00,
2013-06-03 09:24:00,72.0,71.1,29.82,NW,326,0.0,0.0,97,0.00,,,0.27,Wunderground v.1.13,2013-06-03 13:24:00,
2013-06-03 09:30:00,72.0,71.1,29.82,NW,326,0.0,0.0,97,0.00,,,0.27,Wunderground v.1.13,2013-06-03 13:30:00,
2013-06-03 09:38:00,72.1,71.2,29.82,NW,326,0.0,0.0,97,0.00,,,0.27,Wunderground v.1.13,2013-06-03 13:38:00,
2013-06-03 09:44:00,72.3,71.4,29.82,NW,326,0.0,0.0,97,0.00,,,0.27,Wunderground v.1.13,2013-06-03 13:44:00,
2013-06-03 09:50:00,72.5,71.6,29.82,NW,326,0.0,0.0,97,0.00,,,0.27,Wunderground v.1.13,2013-06-03 13:50:00,
2013-06-03 09:56:00,72.8,71.9,29.82,NW,326,0.0,0.0,97,0.00,,,0.27,Wunderground v.1.13,2013-06-03 13:56:00,
2013-06-03 10:02:00,73.0,72.1,29.82,NW,326,0.0,0.0,97,0.00,,,0.27,Wunderground v.1.13,2013-06-03 14:02:00,
2013-06-03 10:10:00,73.2,72.3,29.82,NW,326,0.0,0.0,97,0.00,,,0.27,Wunderground v.1.13,2013-06-03 14:10:00,
2013-06-03 10:16:00,73.2,72.3,29.82,NW,326,0.0,0.0,97,0.00,,,0.27,Wunderground v.1.13,2013-06-03 14:16:00,
2013-06-03 10:22:00,73.2,72.3,29.82,NW,326,0.0,0.0,97,0.00,,,0.27,Wunderground v.1.13,2013-06-03 14:22:00,
2013-06-03 10:28:00,73.2,72.3,29.82,NW,326,0.0,0.0,97,0.00,,,0.27,Wunderground v.1.13,2013-06-03 14:28:00,
2013-06-03 10:34:00,73.2,72.3,29.83,NW,326,0.0,0.0,97,0.00,,,0.27,Wunderground v.1.13,2013-06-03 14:34:00,
2013-06-03 10:40:00,73.2,72.3,29.83,NW,326,0.0,0.0,97,0.00,,,0.27,Wunderground v.1.13,2013-06-03 14:40:00,
2013-06-03 10:46:00,73.2,72.3,29.82,NW,326,0.0,0.0,97,0.00,,,0.27,Wunderground v.1.13,2013-06-03 14:46:00,
2013-06-03 10:54:00,73.9,73.0,29.82,NW,326,0.0,0.0,97,0.00,,,0.27,Wunderground v.1.13,2013-06-03 14:54:00,
2013-06-03 11:00:00,74.4,73.2,29.82,NW,326,0.0,0.0,96,0.00,,,0.27,Wunderground v.1.13,2013-06-03 15:00:00,
2013-06-03 11:06:00,74.4,72.9,29.82,NW,326,0.0,0.0,95,0.00,,,0.27,Wunderground v.1.13,2013-06-03 15:06:00,
2013-06-03 11:12:00,74.4,72.9,29.82,NW,326,0.0,0.0,95,0.00,,,0.27,Wunderground v.1.13,2013-06-03 15:12:00,
2013-06-03 11:18:00,74.7,72.9,29.82,NW,326,0.0,0.0,94,0.00,,,0.27,Wunderground v.1.13,2013-06-03 15:18:00,
2013-06-03 11:24:00,74.4,72.6,29.82,NW,326,0.0,0.0,94,0.00,,,0.27,Wunderground v.1.13,2013-06-03 15:24:00,
2013-06-03 11:30:00,74.9,73.1,29.82,NW,326,0.0,0.0,94,0.00,,,0.27,Wunderground v.1.13,2013-06-03 15:30:00,
2013-06-03 11:37:00,75.1,73.3,29.82,NW,326,0.0,0.0,94,0.00,,,0.27,Wunderground v.1.13,2013-06-03 15:37:00,
2013-06-03 11:42:00,75.1,73.3,29.82,NW,326,0.0,0.0,94,0.00,,,0.27,Wunderground v.1.13,2013-06-03 15:42:00,
2013-06-03 11:48:00,75.1,73.3,29.82,NW,326,0.0,0.0,94,0.00,,,0.27,Wunderground v.1.13,2013-06-03 15:48:00,
2013-06-03 11:54:00,75.8,73.0,29.82,North,359,0.0,0.0,91,0.00,,,0.27,Wunderground v.1.13,2013-06-03 15:54:00,
2013-06-03 12:00:00,75.6,72.8,29.82,North,357,0.0,0.0,91,0.00,,,0.27,Wunderground v.1.13,2013-06-03 16:00:00,
2013-06-03 12:06:00,75.6,72.8,29.82,North,353,0.0,0.0,91,0.00,,,0.27,Wunderground v.1.13,2013-06-03 16:06:00,
2013-06-03 12:12:00,75.8,73.0,29.82,North,0,0.0,0.0,91,0.00,,,0.27,Wunderground v.1.13,2013-06-03 16:12:00,
2013-06-03 12:18:00,75.8,73.0,29.81,NNE,21,0.0,0.0,91,0.00,,,0.27,Wunderground v.1.13,2013-06-03 16:18:00,
2013-06-03 12:24:00,75.6,72.1,29.81,NNE,21,0.0,0.0,89,0.00,,,0.27,Wunderground v.1.13,2013-06-03 16:24:00,
2013-06-03 12:30:00,75.6,72.5,29.81,North,0,0.0,0.0,90,0.00,,,0.27,Wunderground v.1.13,2013-06-03 16:30:00,
2013-06-03 12:36:00,75.4,71.9,29.81,NE,55,0.0,0.0,89,0.00,,,0.27,Wunderground v.1.13,2013-06-03 16:36:00,
2013-06-03 12:42:00,76.3,72.1,29.81,North,353,0.0,0.0,87,0.00,,,0.27,Wunderground v.1.13,2013-06-03 16:42:00,
2013-06-03 12:48:00,77.4,72.2,29.80,North,349,0.0,0.0,84,0.00,,,0.27,Wunderground v.1.13,2013-06-03 16:48:00,
2013-06-03 12:54:00,77.9,71.6,29.80,North,357,0.0,0.0,81,0.00,,,0.27,Wunderground v.1.13,2013-06-03 16:54:00,
2013-06-03 13:00:00,79.2,70.2,29.80,North,350,1.0,1.0,74,0.00,,,0.27,Wunderground v.1.13,2013-06-03 17:00:00,
2013-06-03 13:10:00,79.0,70.8,29.79,North,352,0.0,1.0,76,0.00,,,0.27,Wunderground v.1.13,2013-06-03 17:10:00,
2013-06-03 13:16:00,79.4,70.0,29.79,NNE,14,0.0,0.0,73,0.00,,,0.27,Wunderground v.1.13,2013-06-03 17:16:00,
2013-06-03 13:22:00,80.7,70.0,29.79,NNW,346,1.0,4.0,70,0.00,,,0.27,Wunderground v.1.13,2013-06-03 17:22:00,
2013-06-03 13:28:00,80.3,71.3,29.79,North,0,2.0,5.0,74,0.00,,,0.27,Wunderground v.1.13,2013-06-03 17:28:00,
2013-06-03 13:34:00,79.8,68.3,29.80,North,0,0.0,2.0,68,0.00,,,0.27,Wunderground v.1.13,2013-06-03 17:34:00,
2013-06-03 13:40:00,79.9,70.9,29.80,NNW,343,0.0,1.0,74,0.00,,,0.27,Wunderground v.1.13,2013-06-03 17:40:00,
2013-06-03 13:46:00,80.1,70.3,29.79,NNW,344,0.0,0.0,72,0.00,,,0.27,Wunderground v.1.13,2013-06-03 17:46:00,
2013-06-03 13:54:00,79.4,71.6,29.79,North,0,0.0,0.0,77,0.00,,,0.27,Wunderground v.1.13,2013-06-03 17:54:00,
2013-06-03 14:00:00,79.8,69.1,29.79,North,0,0.0,0.0,70,0.00,,,0.27,Wunderground v.1.13,2013-06-03 18:00:00,
2013-06-03 14:06:00,79.4,70.4,29.79,North,0,0.0,0.0,74,0.00,,,0.27,Wunderground v.1.13,2013-06-03 18:06:00,
2013-06-03 14:12:00,78.6,70.8,29.79,North,0,0.0,0.0,77,0.00,,,0.27,Wunderground v.1.13,2013-06-03 18:12:00,
2013-06-03 14:18:00,79.6,69.0,29.79,North,0,0.0,0.0,70,0.00,,,0.27,Wunderground v.1.13,2013-06-03 18:18:00,
2013-06-03 14:24:00,78.8,69.4,29.79,North,0,0.0,0.0,73,0.00,,,0.27,Wunderground v.1.13,2013-06-03 18:24:00,
2013-06-03 14:30:00,78.6,68.8,29.79,NNW,328,0.0,0.0,72,0.00,,,0.27,Wunderground v.1.13,2013-06-03 18:30:00,
2013-06-03 14:36:00,79.2,68.6,29.80,NNW,328,0.0,0.0,70,0.00,,,0.27,Wunderground v.1.13,2013-06-03 18:36:00,
2013-06-03 14:42:00,79.8,69.1,29.80,NNW,333,0.0,0.0,70,0.00,,,0.27,Wunderground v.1.13,2013-06-03 18:42:00,
2013-06-03 14:48:00,80.7,68.7,29.79,NNW,329,1.0,2.0,67,0.00,,,0.27,Wunderground v.1.13,2013-06-03 18:48:00,
2013-06-03 14:54:00,81.2,68.3,29.79,NNW,333,2.0,2.0,65,0.00,,,0.27,Wunderground v.1.13,2013-06-03 18:54:00,
2013-06-03 15:00:00,81.4,69.4,29.79,NNW,328,2.0,2.0,67,0.00,,,0.27,Wunderground v.1.13,2013-06-03 19:00:00,
2013-06-03 15:06:00,81.4,68.1,29.79,North,359,1.0,1.0,64,0.00,,,0.27,Wunderground v.1.13,2013-06-03 19:06:00,
2013-06-03 15:12:00,80.3,69.6,29.79,NNW,335,0.0,0.0,70,0.00,,,0.27,Wunderground v.1.13,2013-06-03 19:12:00,
2013-06-03 15:18:00,79.2,69.8,29.79,NNW,335,0.0,0.0,73,0.00,,,0.27,Wunderground v.1.13,2013-06-03 19:18:00,
2013-06-03 15:24:00,78.8,70.6,29.79,NNW,335,0.0,0.0,76,0.00,,,0.27,Wunderground v.1.13,2013-06-03 19:24:00,
2013-06-03 15:30:00,78.6,70.4,29.79,NNW,335,0.0,0.0,76,0.00,,,0.27,Wunderground v.1.13,2013-06-03 19:30:00,
2013-06-03 15:36:00,79.0,70.4,29.78,NNW,335,0.0,0.0,75,0.00,,,0.27,Wunderground v.1.13,2013-06-03 19:36:00,
2013-06-03 15:42:00,79.4,70.0,29.78,NNW,335,0.0,0.0,73,0.00,,,0.27,Wunderground v.1.13,2013-06-03 19:42:00,
2013-06-03 15:48:00,79.8,70.0,29.77,NNW,335,0.0,0.0,72,0.00,,,0.27,Wunderground v.1.13,2013-06-03 19:48:00,
2013-06-03 15:54:00,80.1,69.8,29.77,NNW,335,0.0,0.0,71,0.00,,,0.27,Wunderground v.1.13,2013-06-03 19:54:00,
2013-06-03 16:00:00,80.1,70.7,29.77,NNW,335,0.0,0.0,73,0.00,,,0.27,Wunderground v.1.13,2013-06-03 20:00:00,
2013-06-03 16:06:00,79.8,70.0,29.76,NNW,335,0.0,0.0,72,0.00,,,0.27,Wunderground v.1.13,2013-06-03 20:06:00,
2013-06-03 16:12:00,80.7,68.3,29.76,NNW,335,0.0,0.0,66,0.00,,,0.27,Wunderground v.1.13,2013-06-03 20:12:00,
2013-06-03 16:18:00,80.3,68.8,29.75,NNW,335,0.0,0.0,68,0.00,,,0.27,Wunderground v.1.13,2013-06-03 20:18:00,
2013-06-03 16:24:00,80.3,67.9,29.75,NNW,335,0.0,0.0,66,0.00,,,0.27,Wunderground v.1.13,2013-06-03 20:24:00,
2013-06-03 16:30:00,79.6,69.4,29.75,NNW,335,0.0,0.0,71,0.00,,,0.27,Wunderground v.1.13,2013-06-03 20:30:00,
2013-06-03 16:36:00,79.4,70.8,29.75,NNW,335,0.0,0.0,75,0.00,,,0.27,Wunderground v.1.13,2013-06-03 20:36:00,
2013-06-03 16:44:00,79.0,70.4,29.75,NNW,335,0.0,0.0,75,0.00,,,0.27,Wunderground v.1.13,2013-06-03 20:44:00,
2013-06-03 16:50:00,79.2,69.0,29.75,NNW,335,0.0,0.0,71,0.00,,,0.27,Wunderground v.1.13,2013-06-03 20:50:00,
2013-06-03 16:56:00,79.4,70.0,29.75,NNW,335,0.0,0.0,73,0.00,,,0.27,Wunderground v.1.13,2013-06-03 20:56:00,
2013-06-03 17:02:00,79.6,68.5,29.75,NNW,335,0.0,0.0,69,0.00,,,0.27,Wunderground v.1.13,2013-06-03 21:02:00,
2013-06-03 17:10:00,79.8,69.6,29.75,NNW,335,0.0,0.0,71,0.00,,,0.27,Wunderground v.1.13,2013-06-03 21:10:00,
2013-06-03 17:16:00,79.8,70.8,29.76,NNW,335,0.0,0.0,74,0.00,,,0.27,Wunderground v.1.13,2013-06-03 21:16:00,
2013-06-03 17:24:00,80.1,69.4,29.76,NNW,335,0.0,0.0,70,0.00,,,0.27,Wunderground v.1.13,2013-06-03 21:24:00,
2013-06-03 17:30:00,80.1,70.7,29.76,NNW,335,0.0,0.0,73,0.00,,,0.27,Wunderground v.1.13,2013-06-03 21:30:00,
2013-06-03 17:37:00,80.3,69.6,29.76,NNW,335,0.0,0.0,70,0.00,,,0.27,Wunderground v.1.13,2013-06-03 21:37:00,
2013-06-03 17:42:00,80.3,70.4,29.76,NNW,335,0.0,0.0,72,0.00,,,0.27,Wunderground v.1.13,2013-06-03 21:42:00,
2013-06-03 17:48:00,80.3,69.2,29.76,NNW,335,0.0,0.0,69,0.00,,,0.27,Wunderground v.1.13,2013-06-03 21:48:00,
2013-06-03 17:54:00,80.5,69.4,29.76,NNW,335,0.0,0.0,69,0.00,,,0.27,Wunderground v.1.13,2013-06-03 21:54:00,
2013-06-03 18:00:00,80.5,69.8,29.76,NNW,335,0.0,0.0,70,0.00,,,0.27,Wunderground v.1.13,2013-06-03 22:00:00,
2013-06-03 18:06:00,80.5,70.2,29.76,NNW,335,0.0,0.0,71,0.00,,,0.27,Wunderground v.1.13,2013-06-03 22:06:00,
2013-06-03 18:12:00,80.3,70.0,29.76,NNW,335,0.0,0.0,71,0.00,,,0.27,Wunderground v.1.13,2013-06-03 22:12:00,
2013-06-03 18:18:00,79.6,66.8,29.77,NW,313,3.0,11.0,65,0.00,,,0.27,Wunderground v.1.13,2013-06-03 22:18:00,
2013-06-03 18:24:00,77.6,67.9,29.77,NNW,330,8.0,8.0,72,0.00,,,0.28,Wunderground v.1.13,2013-06-03 22:24:00,
2013-06-03 18:30:00,74.4,66.7,29.77,NNW,332,7.0,8.0,77,2.07,,,0.41,Wunderground v.1.13,2013-06-03 22:30:00,
2013-06-03 18:36:00,72.8,65.5,29.79,NW,316,2.0,4.0,78,0.37,,,0.48,Wunderground v.1.13,2013-06-03 22:36:00,
2013-06-03 18:42:00,71.8,66.0,29.79,NW,316,0.0,0.0,82,0.09,,,0.48,Wunderground v.1.13,2013-06-03 22:42:00,
2013-06-03 18:48:00,70.8,65.4,29.78,NW,315,0.0,0.0,83,0.09,,,0.49,Wunderground v.1.13,2013-06-03 22:48:00,
2013-06-03 18:54:00,70.3,65.2,29.78,NW,316,0.0,0.0,84,0.05,,,0.49,Wunderground v.1.13,2013-06-03 22:54:00,
2013-06-03 19:00:00,69.6,65.6,29.78,North,359,0.0,0.0,87,0.00,,,0.49,Wunderground v.1.13,2013-06-03 23:00:00,
2013-06-03 19:06:00,69.3,66.2,29.80,North,359,0.0,0.0,90,0.00,,,0.49,Wunderground v.1.13,2013-06-03 23:06:00,
2013-06-03 19:12:00,68.9,65.8,29.80,North,359,0.0,0.0,90,0.00,,,0.49,Wunderground v.1.13,2013-06-03 23:12:00,
2013-06-03 19:18:00,68.8,65.7,29.79,North,359,0.0,0.0,90,0.00,,,0.49,Wunderground v.1.13,2013-06-03 23:18:00,
2013-06-03 19:24:00,68.6,66.2,29.79,North,359,0.0,0.0,92,0.00,,,0.49,Wunderground v.1.13,2013-06-03 23:24:00,
2013-06-03 19:30:00,68.4,66.0,29.79,North,359,0.0,0.0,92,0.00,,,0.49,Wunderground v.1.13,2013-06-03 23:30:00,
2013-06-03 19:36:00,68.6,66.5,29.79,North,359,0.0,0.0,93,0.00,,,0.49,Wunderground v.1.13,2013-06-03 23:36:00,
2013-06-03 19:42:00,68.6,66.8,29.79,North,359,0.0,0.0,94,0.00,,,0.49,Wunderground v.1.13,2013-06-03 23:42:00,
2013-06-03 19:48:00,68.8,67.3,29.78,North,359,0.0,0.0,95,0.00,,,0.49,Wunderground v.1.13,2013-06-03 23:48:00,
2013-06-03 19:54:00,68.9,67.4,29.78,North,359,0.0,0.0,95,0.00,,,0.49,Wunderground v.1.13,2013-06-03 23:54:00,
2013-06-03 20:00:00,69.1,67.6,29.78,North,359,0.0,0.0,95,0.00,,,0.49,Wunderground v.1.13,2013-06-04 00:00:00,
2013-06-03 20:06:00,69.1,67.6,29.80,North,359,0.0,0.0,95,0.00,,,0.49,Wunderground v.1.13,2013-06-04 00:06:00,
2013-06-03 20:12:00,69.1,67.6,29.80,North,359,0.0,0.0,95,0.00,,,0.49,Wunderground v.1.13,2013-06-04 00:12:00,
2013-06-03 20:18:00,69.1,67.6,29.79,North,359,0.0,0.0,95,0.00,,,0.49,Wunderground v.1.13,2013-06-04 00:18:00,
2013-06-03 20:24:00,69.1,67.9,29.79,North,359,0.0,0.0,96,0.00,,,0.49,Wunderground v.1.13,2013-06-04 00:24:00,
2013-06-03 20:30:00,69.1,67.6,29.79,North,359,0.0,0.0,95,0.00,,,0.49,Wunderground v.1.13,2013-06-04 00:30:00,
2013-06-03 20:36:00,69.1,67.6,29.79,North,359,0.0,0.0,95,0.00,,,0.49,Wunderground v.1.13,2013-06-04 00:36:00,
2013-06-03 20:42:00,68.9,67.4,29.79,North,359,0.0,0.0,95,0.00,,,0.49,Wunderground v.1.13,2013-06-04 00:42:00,
2013-06-03 20:48:00,68.9,67.4,29.80,North,359,0.0,0.0,95,0.00,,,0.49,Wunderground v.1.13,2013-06-04 00:48:00,
2013-06-03 20:54:00,68.9,67.4,29.80,North,359,0.0,0.0,95,0.00,,,0.49,Wunderground v.1.13,2013-06-04 00:54:00,
2013-06-03 21:00:00,68.9,67.4,29.80,North,359,0.0,0.0,95,0.00,,,0.49,Wunderground v.1.13,2013-06-04 01:00:00,
2013-06-03 21:06:00,68.8,67.3,29.82,North,359,0.0,0.0,95,0.00,,,0.49,Wunderground v.1.13,2013-06-04 01:06:00,
2013-06-03 21:12:00,68.8,67.3,29.82,North,359,0.0,0.0,95,0.00,,,0.49,Wunderground v.1.13,2013-06-04 01:12:00,
2013-06-03 21:18:00,68.8,67.3,29.83,North,359,0.0,0.0,95,0.00,,,0.49,Wunderground v.1.13,2013-06-04 01:18:00,
2013-06-03 21:24:00,68.8,67.3,29.83,North,359,0.0,0.0,95,0.00,,,0.49,Wunderground v.1.13,2013-06-04 01:24:00,
2013-06-03 21:30:00,68.8,67.6,29.83,North,359,0.0,0.0,96,0.00,,,0.49,Wunderground v.1.13,2013-06-04 01:30:00,
2013-06-03 21:36:00,68.8,67.3,29.83,North,359,0.0,0.0,95,0.00,,,0.49,Wunderground v.1.13,2013-06-04 01:36:00,
2013-06-03 21:42:00,68.8,67.6,29.83,North,359,0.0,0.0,96,0.00,,,0.49,Wunderground v.1.13,2013-06-04 01:42:00,
2013-06-03 21:48:00,68.8,67.6,29.84,North,359,0.0,0.0,96,0.00,,,0.49,Wunderground v.1.13,2013-06-04 01:48:00,
2013-06-03 21:54:00,68.8,67.6,29.84,North,359,0.0,0.0,96,0.00,,,0.49,Wunderground v.1.13,2013-06-04 01:54:00,
2013-06-03 22:00:00,68.8,67.6,29.84,North,359,0.0,0.0,96,0.00,,,0.49,Wunderground v.1.13,2013-06-04 02:00:00,
2013-06-03 22:06:00,68.8,67.6,29.84,North,359,0.0,0.0,96,0.00,,,0.49,Wunderground v.1.13,2013-06-04 02:06:00,
2013-06-03 22:12:00,68.8,67.6,29.84,North,359,0.0,0.0,96,0.00,,,0.49,Wunderground v.1.13,2013-06-04 02:12:00,
2013-06-03 22:18:00,68.8,67.6,29.85,North,359,0.0,0.0,96,0.00,,,0.49,Wunderground v.1.13,2013-06-04 02:18:00,
2013-06-03 22:24:00,68.8,67.6,29.85,North,359,0.0,0.0,96,0.00,,,0.49,Wunderground v.1.13,2013-06-04 02:24:00,
2013-06-03 22:30:00,68.8,67.6,29.85,North,359,0.0,0.0,96,0.00,,,0.49,Wunderground v.1.13,2013-06-04 02:30:00,
2013-06-03 22:36:00,68.6,67.4,29.86,North,359,0.0,0.0,96,0.00,,,0.49,Wunderground v.1.13,2013-06-04 02:36:00,
2013-06-03 22:42:00,68.6,67.4,29.86,North,359,0.0,0.0,96,0.00,,,0.49,Wunderground v.1.13,2013-06-04 02:42:00,
2013-06-03 22:48:00,68.6,67.4,29.86,North,359,0.0,0.0,96,0.00,,,0.49,Wunderground v.1.13,2013-06-04 02:48:00,
2013-06-03 22:54:00,68.6,67.4,29.86,North,359,0.0,0.0,96,0.00,,,0.49,Wunderground v.1.13,2013-06-04 02:54:00,
2013-06-03 23:00:00,68.4,67.2,29.86,North,359,0.0,0.0,96,0.00,,,0.49,Wunderground v.1.13,2013-06-04 03:00:00,
2013-06-03 23:06:00,68.4,67.2,29.86,North,359,0.0,0.0,96,0.00,,,0.49,Wunderground v.1.13,2013-06-04 03:06:00,
2013-06-03 23:12:00,68.3,67.1,29.86,North,359,0.0,0.0,96,0.00,,,0.49,Wunderground v.1.13,2013-06-04 03:12:00,
2013-06-03 23:18:00,68.3,67.1,29.86,North,359,0.0,0.0,96,0.00,,,0.49,Wunderground v.1.13,2013-06-04 03:18:00,
2013-06-03 23:24:00,68.1,66.9,29.86,North,359,0.0,0.0,96,0.00,,,0.49,Wunderground v.1.13,2013-06-04 03:24:00,
2013-06-03 23:30:00,68.1,66.9,29.86,North,359,0.0,0.0,96,0.00,,,0.49,Wunderground v.1.13,2013-06-04 03:30:00,
2013-06-03 23:36:00,67.9,66.7,29.86,North,359,0.0,0.0,96,0.00,,,0.49,Wunderground v.1.13,2013-06-04 03:36:00,
2013-06-03 23:42:00,67.8,66.6,29.86,North,359,0.0,0.0,96,0.00,,,0.49,Wunderground v.1.13,2013-06-04 03:42:00,
2013-06-03 23:48:00,67.6,66.1,29.87,North,359,0.0,0.0,95,0.00,,,0.49,Wunderground v.1.13,2013-06-04 03:48:00,
2013-06-03 23:54:00,67.6,66.1,29.87,North,359,0.0,0.0,95,0.00,,,0.49,Wunderground v.1.13,2013-06-04 03:54:00,